Temperature
28 25 25 26 26 27 27 27 27 28 29 28 27 26 26 26 25 25 24 24 24 23 23 23 22 22 22 22 21 21 21 21 20 20 20 20 19 19 19 19 19 19 19 19
25 25 27 28 28 28 27 27 27 28 29 28 26 26 26 25 25 25 24 24 24 23 23 23 22 22 22 22 22 21 21 21 21 20 20 20 19 19 19 19 19 19 19 19
26 27 29 29 29 28 27 27 27 28 28 27 26 26 25 25 25 25 25 24 24 24 23 23 22 22 22 22 22 21 21 21 21 20 20 20 19 19 19 19 19 19 19 19
26 28 29 29 29 28 27 29 29 29 26 25 26 24 25 24 24 24 24 24 24 24 23 23 23 22 22 22 22 22 21 21 21 20 20 20 20 19 19 19 19 19 19 19
26 28 29 29 29 30 29 29 29 29 26 25 25 24 24 24 24 24 24 24 24 24 24 23 23 22 22 22 22 21 21 21 21 20 20 20 20 19 19 19 19 19 18 18
27 29 29 29 30 30 30 28 26 24 23 24 25 24 23 23 24 24 24 24 24 24 24 23 23 22 22 22 21 21 21 21 20 20 20 20 20 19 19 19 19 18 18 18
27 28 29 30 29 28 28 24 23 24 22 23 24 24 23 24 25 25 25 25 24 24 24 23 23 22 22 21 21 21 21 21 20 20 20 19 19 19 19 19 19 18 18 18
25 26 28 29 29 27 27 24 23 24 23 23 24 24 24 26 26 26 26 25 25 24 24 23 23 23 22 22 21 21 21 21 20 20 20 19 19 19 19 19 18 18 18 18
25 25 28 29 30 28 27 25 23 22 23 23 23 24 24 25 25 25 25 24 24 24 24 23 23 23 22 22 22 21 21 21 20 20 20 19 19 19 19 19 18 18 18 18
25 25 27 28 29 28 27 26 22 22 23 23 23 23 23 24 24 24 23 24 24 23 23 23 23 23 22 22 22 21 21 21 20 20 20 19 19 19 19 18 18 18 18 18
24 24 25 26 27 27 27 26 23 20 21 22 22 23 24 24 23 23 23 24 24 23 23 23 23 23 22 22 21 21 21 21 20 20 19 19 19 19 18 18 18 18 18 18
24 22 23 25 26 27 27 26 23 23 22 21 21 22 25 24 24 23 23 24 24 24 24 23 23 22 22 21 21 21 21 21 20 20 19 19 19 18 18 18 18 18 18 17
24 21 22 23 23 25 26 26 24 22 21 20 21 23 24 23 23 23 23 23 23 23 23 23 22 22 22 21 21 21 21 20 20 19 19 19 18 18 18 18 18 18 17 17
24 20 21 23 23 24 25 25 25 23 21 21 22 22 22 22 22 22 22 22 22 22 22 22 22 22 21 21 21 20 20 20 20 19 19 18 18 18 18 18 17 17 17 17
22 21 23 23 24 25 25 25 25 24 23 22 22 21 21 21 21 22 22 22 21 21 21 21 22 21 21 21 21 20 20 20 19 19 19 18 18 18 18 17 17 17 17 16
20 21 22 23 24 24 24 25 25 25 24 23 22 21 21 21 22 21 21 21 20 20 20 21 21 21 21 20 20 20 20 20 19 19 18 18 18 18 17 17 17 16 16 16
19 20 20 21 22 23 22 23 24 23 22 22 21 20 20 20 20 20 20 20 20 20 20 20 20 20 20 20 20 20 20 19 19 19 18 18 18 17 17 17 16 16 16 16
19 18 17 19 21 22 21 22 23 22 21 21 20 20 20 20 20 21 21 20 20 20 20 20 20 20 20 20 19 19 19 19 19 18 18 18 17 17 17 16 16 16 16 16
18 18 17 17 19 20 21 22 22 21 20 21 20 20 20 20 20 19 20 20 20 20 20 20 20 20 20 20 19 19 19 18 18 18 17 17 17 16 16 16 16 16 15 15
18 17 17 18 20 20 20 21 22 21 19 20 20 19 19 19 17 17 19 20 20 20 20 20 20 20 19 19 19 19 18 18 18 17 17 17 16 16 16 16 15 15 15 15
18 18 17 18 18 18 19 21 21 20 19 20 20 20 20 19 18 19 19 19 19 19 19 19 19 19 19 19 18 18 18 17 17 17 17 16 16 16 16 15 15 15 15 15
17 17 17 16 17 18 19 20 19 18 20 20 20 20 20 20 19 19 19 19 19 19 19 19 19 18 18 18 18 17 17 17 16 16 16 16 16 15 15 15 15 15 14 14
16 16 15 16 17 18 19 19 20 20 20 20 20 20 20 19 19 19 18 18 18 18 18 18 18 18 17 17 17 17 16 16 16 16 16 15 15 15 15 14 14 14 14 14
17 16 15 15 16 17 19 19 19 20 19 19 20 20 20 19 19 18 18 18 18 18 17 17 17 17 16 16 16 16 16 16 15 15 15 15 15 15 14 14 14 14 13 13
16 16 15 15 16 17 18 18 19 19 19 19 19 19 19 19 18 18 17 17 17 17 17 16 16 16 15 15 15 15 15 15 15 15 14 14 14 14 14 14 13 13 13 13
15 15 14 14 16 15 17 18 18 18 18 18 18 18 18 18 18 17 17 17 16 16 16 15 15 15 15 15 15 15 14 14 14 14 14 14 14 13 13 13 13 13 13 13
Wind_Speed
1 2 5 9 8 7 5 4 5 6 4 2 4 7 11 12 11 12 12 12 12 12 11 12 13 12 11 9 9 8 7 5 4 3 2 2 1 1 1 1 3 3 3 3
3 6 13 10 6 4 4 4 4 6 5 1 3 4 7 10 13 14 15 14 13 10 10 12 12 11 11 10 9 8 7 6 5 4 3 2 2 1 2 1 1 3 3 3
8 10 8 6 4 3 5 5 5 4 3 4 3 1 3 6 7 8 10 11 11 13 13 13 13 11 11 11 11 10 8 7 6 5 3 2 1 1 1 0 1 1 2 3
7 9 7 6 5 5 6 6 4 1 2 2 2 2 4 6 6 8 9 10 12 12 12 12 13 12 12 12 11 9 9 7 6 6 5 4 3 3 2 2 2 2 2 2
7 5 4 6 7 5 6 3 1 0 1 2 2 3 5 4 6 9 11 12 13 13 14 14 14 14 12 12 11 9 8 7 6 6 7 5 4 3 1 1 1 1 1 2
9 7 4 6 5 4 2 4 7 7 5 2 4 3 5 6 10 10 11 13 13 12 12 12 11 11 10 10 9 9 8 7 6 7 6 6 5 4 2 1 1 1 1 2
8 8 6 3 3 4 3 5 4 6 5 6 4 1 7 9 10 12 13 13 12 12 11 11 12 12 11 10 10 9 9 8 7 7 6 5 5 4 4 3 2 2 1 1
4 7 6 3 6 5 3 8 7 4 5 6 4 2 7 6 6 8 10 11 12 12 11 11 12 12 12 11 10 10 10 8 7 7 6 4 4 3 3 3 2 2 2 3
6 7 6 4 4 6 3 3 8 7 2 1 4 4 6 3 2 5 8 10 12 12 12 11 11 10 10 10 10 10 9 8 7 7 7 5 5 4 3 3 2 2 2 2
8 4 7 5 2 2 6 6 5 5 3 3 4 3 4 5 4 5 6 9 10 10 11 10 10 10 9 9 8 8 9 9 7 7 7 6 5 4 4 3 2 2 2 1
6 5 6 4 2 4 2 1 4 4 6 6 4 6 5 8 7 7 6 7 9 10 11 11 10 9 8 8 8 8 8 7 7 7 6 5 5 4 4 3 3 3 2 1
3 5 4 7 6 5 5 4 6 4 5 5 4 6 4 4 6 7 6 7 9 10 10 9 9 8 8 8 8 8 8 8 7 6 5 5 4 4 4 4 3 3 2 2
3 5 1 7 8 6 2 1 2 4 4 4 4 5 2 2 5 6 7 5 6 8 8 8 7 7 8 7 7 7 7 7 6 6 6 4 4 4 4 4 3 3 3 2
4 5 6 7 7 4 4 5 2 4 3 4 5 5 2 1 4 5 6 6 7 7 7 7 7 6 7 6 6 7 7 7 6 6 5 4 4 4 4 4 3 3 3 3
5 3 2 4 4 1 3 4 3 0 4 6 6 5 5 4 5 5 6 7 7 6 5 5 6 5 6 5 5 6 6 6 6 6 6 5 4 3 3 3 3 3 3 3
4 3 2 4 4 3 4 6 4 3 1 3 6 2 2 3 4 5 6 7 6 4 3 3 5 5 5 5 5 5 5 5 6 6 6 5 4 4 3 3 3 3 3 3
2 3 2 2 5 4 4 5 2 2 3 4 5 3 4 6 5 3 4 5 4 3 2 3 4 4 4 4 5 5 6 5 6 6 5 5 5 4 4 4 3 3 3 3
4 3 3 1 3 1 5 2 3 5 4 3 4 3 5 6 4 3 3 4 3 2 1 2 3 3 3 2 2 4 4 5 5 4 4 4 4 4 4 3 3 3 3 3
6 6 3 3 2 4 4 4 2 2 2 2 4 4 4 5 5 4 2 3 3 2 3 3 4 4 3 3 3 3 3 4 4 4 4 4 4 4 3 4 4 3 3 4
4 5 5 3 3 5 5 7 4 5 1 3 2 3 4 4 2 3 2 1 2 2 0 1 2 3 3 3 3 4 3 3 4 4 4 4 3 4 4 4 4 3 3 4
3 3 3 3 3 4 5 6 3 3 5 3 1 3 4 3 5 4 2 1 2 2 2 2 3 3 3 3 4 3 3 3 4 3 3 3 3 4 4 3 3 3 2 3
3 2 2 3 2 5 5 3 2 4 3 1 1 2 4 4 3 3 3 2 2 1 1 1 2 1 1 2 4 3 2 3 2 2 2 2 2 2 2 2 2 2 2 3
1 4 4 5 5 5 1 3 2 3 2 1 2 2 4 4 4 4 3 3 2 2 1 1 2 1 0 1 3 2 2 2 2 2 1 1 1 2 2 2 2 2 2 3
3 1 2 1 1 1 2 3 3 3 2 1 2 3 4 4 3 3 3 3 2 1 2 2 3 2 1 1 0 1 1 2 2 2 2 2 2 2 2 2 2 2 3 3
3 1 1 1 2 3 4 3 2 3 2 2 1 1 4 5 4 3 3 2 2 2 1 2 2 1 1 1 1 1 1 2 2 2 3 3 3 3 2 2 2 3 4 5
2 3 4 5 5 3 4 4 1 1 1 0 1 2 3 4 5 4 3 2 2 2 2 2 1 0 1 1 2 2 2 2 2 2 3 3 2 2 2 2 2 3 4 4
Wind_Direction
271 89 241 235 205 207 240 255 265 268 258 158 182 177 181 179 173 173 173 173 174 175 169 161 161 161 157 155 154 156 155 161 153 146 151 155 185 205 191 194 183 187 193 189
3 259 242 241 233 225 251 259 273 297 288 149 153 183 182 173 180 181 179 178 177 169 163 164 162 165 167 166 165 164 165 166 169 175 175 171 173 199 195 215 188 194 191 195
225 247 251 251 249 223 249 228 231 242 334 28 82 354 192 185 177 173 176 175 175 175 171 170 168 171 171 172 173 175 176 172 172 167 145 124 89 29 28 324 237 231 202 203
253 255 259 265 261 211 249 245 221 213 35 284 135 223 249 186 179 187 185 176 178 175 171 173 172 174 179 182 178 174 174 173 174 165 159 157 168 190 217 209 217 241 217 211
263 272 269 260 254 219 228 249 281 306 44 5 11 130 272 164 189 205 196 185 182 178 175 178 179 179 180 178 176 176 171 174 174 170 173 171 182 201 209 179 201 251 267 236
258 267 242 232 255 234 204 41 21 34 58 346 261 173 253 208 202 198 195 188 183 176 177 179 176 170 174 173 171 170 168 178 178 177 178 179 182 183 170 182 203 246 265 271
292 292 275 257 291 320 58 76 24 357 359 263 275 192 246 231 204 192 192 186 179 169 168 171 175 175 172 171 175 175 174 183 182 179 183 186 188 180 182 194 200 212 242 265
237 281 272 241 196 210 222 138 158 200 234 275 326 252 269 248 204 184 176 168 165 170 172 170 172 174 173 173 174 175 181 188 185 182 186 181 175 177 190 197 201 210 225 236
197 252 281 264 225 173 202 201 175 153 195 282 283 281 313 327 122 151 152 153 165 171 170 170 169 167 172 174 174 176 179 184 183 181 180 180 183 185 192 196 201 217 228 229
175 233 281 282 318 295 175 170 99 122 173 250 282 265 238 236 183 158 159 163 171 167 166 163 165 168 170 176 174 171 175 177 179 182 185 189 190 193 193 189 206 221 232 233
165 184 285 326 228 241 298 107 125 134 158 167 233 266 233 197 178 166 170 170 167 167 167 165 167 168 166 168 170 172 173 172 178 181 181 179 184 188 187 198 213 217 229 230
166 147 246 268 263 214 187 193 159 172 230 176 177 257 285 179 165 156 155 160 162 167 165 159 157 154 156 166 174 173 172 174 180 176 171 181 186 187 192 207 219 214 216 225
124 112 48 332 336 350 11 289 168 150 141 166 174 246 335 112 120 127 133 135 144 150 148 146 148 155 162 168 177 176 175 180 181 168 167 176 190 195 202 209 210 203 206 213
114 111 158 198 229 263 308 316 323 127 161 203 207 207 294 133 128 125 123 125 124 128 143 149 153 162 159 166 172 173 179 180 171 164 166 177 192 197 204 204 198 203 204 205
84 114 167 220 245 267 312 317 339 11 192 185 205 179 206 191 166 151 132 120 113 121 126 148 153 165 159 162 167 171 173 172 166 163 173 191 194 193 196 199 199 202 200 209
60 110 55 339 341 12 350 338 357 356 11 141 127 152 202 138 104 97 100 105 106 122 150 158 151 151 170 176 172 166 165 169 164 169 185 190 186 191 201 203 201 198 197 194
52 101 85 291 318 13 333 314 12 25 2 140 161 203 128 90 86 106 120 123 123 122 143 148 156 154 160 177 178 179 176 162 160 174 186 187 188 198 206 208 202 206 207 202
147 118 134 153 35 241 245 301 89 90 47 61 104 110 131 131 123 93 103 114 115 102 146 181 165 154 159 158 172 181 163 158 163 177 188 191 194 206 207 200 210 221 215 213
156 145 133 133 185 255 295 330 322 127 3 20 111 105 97 118 77 37 36 105 137 169 180 191 194 184 170 159 155 154 162 160 163 178 184 196 198 205 209 211 221 227 225 229
73 113 132 148 174 216 255 298 297 114 270 300 129 136 131 114 117 245 254 125 163 173 178 151 160 156 159 166 151 142 163 169 183 192 194 196 190 194 203 214 225 233 228 235
32 53 134 167 200 245 267 298 23 128 222 265 158 154 148 164 195 209 208 180 181 158 144 141 143 165 183 170 148 144 173 202 209 197 190 195 199 201 205 206 215 231 242 255
162 150 186 148 176 251 295 39 124 206 217 172 123 146 141 159 162 160 151 132 117 108 93 117 135 160 173 151 147 154 200 212 186 167 174 196 213 223 216 200 229 238 230 250
147 186 182 179 205 230 281 133 176 142 112 147 148 164 150 153 164 162 148 129 119 93 77 98 133 127 358 163 155 172 228 189 155 157 190 210 208 244 220 205 226 251 248 246
317 47 86 43 297 326 41 77 63 74 92 185 149 152 147 157 162 152 145 138 124 103 101 101 100 95 352 330 127 177 211 173 148 183 222 222 206 241 251 239 227 231 236 240
276 57 85 255 279 0 360 5 43 36 42 62 61 130 163 150 146 148 150 150 141 127 100 97 104 130 321 334 290 257 222 177 188 228 229 230 222 224 240 247 245 242 244 234
255 179 174 225 232 201 265 290 285 96 11 83 87 76 121 144 147 141 141 143 132 122 104 100 99 231 265 229 270 271 242 201 199 241 249 241 230 228 223 231 302 308 275 269
Height
1499 1506 1510 1505 1503 1504 1506 1508 1510 1501 1491 1495 1500 1502 1501 1501 1504 1506 1507 1509 1512 1514 1517 1519 1522 1524 1526 1528 1529 1531 1532 1533 1535 1536 1536 1537 1537 1537 1537 1537 1537 1537 1536 1536
1505 1508 1497 1493 1495 1499 1503 1508 1507 1499 1490 1494 1501 1502 1499 1500 1501 1502 1504 1507 1510 1513 1516 1518 1520 1522 1524 1526 1528 1529 1531 1532 1533 1534 1535 1536 1537 1537 1537 1537 1536 1536 1536 1535
1507 1498 1490 1492 1495 1500 1503 1505 1504 1503 1495 1496 1502 1509 1505 1502 1502 1503 1504 1506 1509 1510 1512 1515 1518 1520 1522 1524 1526 1528 1529 1530 1532 1533 1534 1535 1536 1536 1536 1536 1536 1536 1535 1535
1498 1489 1489 1492 1494 1496 1505 1493 1492 1495 1506 1515 1510 1529 1511 1504 1504 1504 1504 1505 1506 1508 1511 1513 1515 1517 1520 1522 1524 1526 1527 1529 1530 1531 1533 1533 1534 1534 1534 1535 1535 1535 1534 1534
1497 1488 1489 1492 1489 1488 1492 1486 1489 1493 1504 1514 1513 1525 1518 1506 1507 1504 1502 1502 1503 1505 1507 1510 1512 1514 1517 1520 1522 1524 1526 1527 1529 1530 1531 1532 1532 1533 1533 1534 1534 1534 1533 1533
1489 1483 1484 1484 1481 1482 1483 1489 1495 1502 1513 1529 1517 1523 1523 1508 1501 1498 1497 1498 1500 1502 1506 1508 1510 1513 1515 1518 1520 1522 1523 1525 1527 1528 1529 1530 1530 1531 1532 1532 1532 1532 1532 1531
1495 1485 1480 1479 1484 1484 1487 1508 1530 1534 1541 1536 1515 1517 1515 1493 1488 1490 1491 1493 1497 1500 1504 1506 1508 1510 1512 1515 1518 1519 1521 1523 1524 1526 1527 1528 1529 1529 1530 1530 1530 1530 1530 1530
1507 1504 1483 1477 1482 1489 1490 1504 1531 1543 1546 1534 1517 1519 1504 1485 1483 1485 1487 1490 1494 1498 1501 1503 1505 1507 1510 1512 1515 1517 1518 1520 1522 1523 1525 1526 1527 1528 1528 1528 1528 1528 1528 1528
1504 1501 1478 1474 1473 1479 1490 1499 1501 1522 1528 1535 1527 1512 1497 1485 1485 1486 1487 1489 1492 1495 1498 1501 1504 1506 1508 1511 1512 1514 1516 1518 1519 1521 1522 1523 1524 1525 1526 1526 1527 1526 1526 1526
1487 1497 1483 1474 1472 1474 1480 1487 1505 1520 1535 1542 1530 1520 1513 1496 1491 1488 1488 1489 1491 1493 1496 1499 1502 1504 1506 1509 1511 1513 1514 1515 1517 1519 1520 1521 1522 1523 1524 1524 1524 1524 1524 1524
1481 1495 1490 1482 1482 1485 1484 1489 1501 1515 1521 1535 1540 1526 1492 1490 1487 1487 1487 1488 1490 1492 1494 1496 1499 1502 1505 1507 1509 1511 1512 1513 1515 1516 1518 1519 1520 1521 1521 1522 1522 1522 1522 1521
1479 1493 1501 1489 1476 1472 1477 1484 1496 1514 1518 1521 1528 1519 1484 1484 1484 1484 1486 1486 1488 1490 1492 1495 1498 1500 1503 1505 1507 1508 1509 1510 1512 1514 1515 1517 1518 1518 1518 1519 1519 1519 1519 1519
1477 1493 1509 1505 1495 1482 1481 1481 1486 1497 1509 1519 1525 1514 1485 1484 1484 1485 1486 1487 1488 1490 1492 1495 1497 1499 1500 1502 1504 1505 1507 1508 1510 1511 1513 1514 1515 1516 1516 1516 1516 1516 1516 1516
1473 1491 1504 1511 1505 1492 1489 1484 1481 1492 1509 1512 1509 1503 1493 1488 1487 1486 1487 1488 1489 1490 1492 1493 1496 1497 1498 1499 1501 1503 1504 1506 1507 1509 1510 1511 1512 1513 1513 1514 1513 1514 1514 1513
1475 1490 1489 1490 1485 1483 1484 1483 1481 1486 1491 1500 1498 1497 1492 1488 1487 1487 1487 1488 1489 1490 1492 1492 1493 1495 1496 1498 1499 1501 1502 1503 1505 1506 1507 1509 1510 1510 1510 1511 1510 1511 1511 1510
1479 1487 1488 1489 1483 1482 1485 1482 1480 1482 1483 1487 1490 1493 1486 1485 1485 1487 1488 1488 1489 1490 1491 1491 1491 1493 1495 1497 1497 1498 1500 1501 1503 1504 1505 1506 1507 1507 1507 1507 1507 1507 1507 1506
1484 1489 1496 1500 1489 1487 1497 1487 1483 1485 1484 1486 1493 1491 1486 1487 1487 1488 1489 1489 1490 1491 1491 1491 1491 1492 1494 1496 1496 1497 1498 1499 1500 1501 1503 1503 1504 1504 1504 1504 1504 1503 1503 1503
1483 1491 1499 1502 1498 1509 1497 1481 1480 1484 1486 1483 1484 1485 1484 1485 1487 1487 1488 1489 1489 1491 1491 1491 1492 1492 1492 1494 1495 1496 1497 1497 1498 1499 1500 1501 1501 1501 1501 1501 1500 1500 1500 1500
1475 1486 1499 1506 1508 1502 1490 1482 1481 1485 1490 1484 1484 1484 1485 1485 1486 1489 1489 1489 1490 1490 1489 1489 1490 1490 1491 1492 1493 1494 1494 1495 1496 1497 1497 1498 1498 1498 1498 1498 1497 1497 1497 1496
1475 1481 1495 1502 1505 1508 1495 1482 1478 1482 1494 1484 1482 1483 1484 1484 1491 1491 1488 1488 1488 1489 1488 1487 1488 1489 1489 1490 1491 1492 1492 1493 1493 1494 1494 1495 1495 1495 1495 1494 1494 1494 1493 1493
1487 1490 1496 1501 1503 1498 1486 1480 1478 1495 1495 1484 1482 1482 1482 1484 1486 1486 1485 1485 1486 1486 1485 1486 1486 1486 1487 1488 1489 1489 1489 1490 1491 1492 1492 1492 1492 1491 1491 1491 1491 1490 1490 1489
1491 1495 1497 1500 1505 1502 1482 1479 1485 1487 1482 1482 1481 1481 1481 1481 1483 1483 1484 1484 1484 1484 1484 1484 1484 1484 1484 1485 1486 1486 1486 1487 1488 1489 1488 1488 1488 1488 1487 1487 1487 1486 1486 1485
1487 1489 1490 1492 1494 1484 1480 1480 1481 1481 1481 1481 1481 1480 1480 1480 1481 1482 1482 1482 1482 1482 1482 1483 1483 1483 1482 1483 1483 1483 1483 1484 1485 1485 1485 1484 1484 1484 1483 1483 1482 1482 1482 1481
1484 1482 1485 1488 1485 1482 1480 1479 1480 1480 1480 1480 1479 1479 1479 1479 1479 1479 1480 1480 1480 1480 1480 1481 1481 1480 1480 1480 1480 1481 1481 1481 1481 1481 1481 1481 1480 1480 1480 1479 1479 1478 1478 1477
1484 1483 1486 1488 1484 1482 1481 1480 1479 1479 1478 1478 1477 1477 1477 1477 1478 1478 1478 1478 1478 1478 1478 1478 1478 1478 1477 1478 1478 1478 1478 1478 1477 1477 1476 1476 1476 1476 1476 1476 1475 1475 1474 1474
1482 1483 1486 1487 1483 1483 1481 1480 1479 1478 1477 1477 1476 1476 1476 1476 1476 1476 1476 1477 1477 1476 1476 1476 1476 1476 1475 1475 1474 1474 1474 1473 1473 1473 1472 1472 1472 1472 1472 1472 1471 1471 1471 1470